DAL999 KMKE-KATL

Flight info

Callsign DAL999
Flight time N/A
Altitude 35000
Route UECKR6 DELHI DCT LCOLN DCT TTH DCT HITMN DCT NEWBB DCT IHAVE DCT MTHEW CHPPR1
Aircraft B738/M-SDE2E3FGHIRWXY/LB1

Departure

Time 2026-04-20 21:31
Airport General Mitchell International Airport (KMKE)

Arrival

Time N/A
Airport Hartsfield Jackson Atlanta International Airport (KATL)
Time Latitude Longitude Altitude Speed Heading
2026-04-20 21:19 42.95022 -87.89937 687 ft 0 kts 294°
2026-04-20 21:26 42.95017 -87.89921 679 ft 3 kts 304°
2026-04-20 21:26 42.95004 -87.89900 679 ft 3 kts 311°
2026-04-20 21:26 42.94992 -87.89878 679 ft 3 kts 293°
2026-04-20 21:27 42.94986 -87.89860 680 ft 3 kts 344°
2026-04-20 21:27 42.94980 -87.89858 684 ft 3 kts 62°
2026-04-20 21:27 42.94977 -87.89864 685 ft 10 kts 75°
2026-04-20 21:29 42.94986 -87.89838 685 ft 12 kts 58°
2026-04-20 21:29 42.95082 -87.89758 687 ft 21 kts 27°
2026-04-20 21:29 42.95208 -87.89670 684 ft 8 kts 27°
2026-04-20 21:30 42.95276 -87.89623 684 ft 17 kts 27°
2026-04-20 21:30 42.95418 -87.89526 685 ft 27 kts 21°
2026-04-20 21:30 42.95608 -87.89481 684 ft 28 kts
2026-04-20 21:30 42.95739 -87.89414 687 ft 18 kts 69°
2026-04-20 21:31 42.95700 -87.89318 682 ft 13 kts 174°
2026-04-20 21:31 42.95325 -87.89371 680 ft 94 kts 187°
2026-04-20 21:31 42.94457 -87.89532 867 ft 143 kts 186°
2026-04-20 21:31 42.93461 -87.89756 1749 ft 147 kts 181°
2026-04-20 21:32 42.92387 -87.89790 2511 ft 164 kts 177°
2026-04-20 21:32 42.91234 -87.89536 3424 ft 169 kts 168°
2026-04-20 21:32 42.90165 -87.88795 4260 ft 190 kts 141°
2026-04-20 21:32 42.89265 -87.87391 4890 ft 204 kts 136°
2026-04-20 21:33 42.88237 -87.85897 4997 ft 231 kts 140°
2026-04-20 21:33 42.87011 -87.84278 5080 ft 259 kts 141°
2026-04-20 21:33 42.85677 -87.82608 5662 ft 263 kts 142°
2026-04-20 21:33 42.84275 -87.80926 6171 ft 274 kts 143°
2026-04-20 21:34 42.82798 -87.79210 6734 ft 284 kts 143°
2026-04-20 21:34 42.81258 -87.77458 7268 ft 292 kts 143°
2026-04-20 21:34 42.79674 -87.75680 7789 ft 296 kts 143°
2026-04-20 21:34 42.78071 -87.73896 8333 ft 299 kts 143°
2026-04-20 21:35 42.76445 -87.72097 8878 ft 303 kts 143°
2026-04-20 21:35 42.74801 -87.70286 9431 ft 306 kts 143°
2026-04-20 21:35 42.73138 -87.68458 9993 ft 309 kts 143°
2026-04-20 21:35 42.71450 -87.66606 10527 ft 313 kts 142°
2026-04-20 21:36 42.69668 -87.64876 10953 ft 318 kts 157°
2026-04-20 21:36 42.67520 -87.64142 11029 ft 332 kts 180°
2026-04-20 21:36 42.65179 -87.63968 11005 ft 339 kts 182°
2026-04-20 21:36 42.62820 -87.63833 11010 ft 340 kts 182°
2026-04-20 21:37 42.60456 -87.63689 10998 ft 340 kts 181°
2026-04-20 21:37 42.58092 -87.63528 10989 ft 340 kts 181°
2026-04-20 21:37 42.55750 -87.63358 11351 ft 334 kts 181°
2026-04-20 21:37 42.53400 -87.63186 11863 ft 342 kts 181°
2026-04-20 21:38 42.50995 -87.63000 12373 ft 350 kts 181°
2026-04-20 21:38 42.48548 -87.62802 12898 ft 354 kts 181°
2026-04-20 21:38 42.46075 -87.62601 13421 ft 357 kts 181°
2026-04-20 21:38 42.43615 -87.62402 13944 ft 359 kts 181°
2026-04-20 21:39 42.41132 -87.62472 14424 ft 356 kts 193°
2026-04-20 21:39 42.38688 -87.63010 14916 ft 355 kts 197°
2026-04-20 21:39 42.36247 -87.63624 15407 ft 360 kts 196°
2026-04-20 21:39 42.33757 -87.64210 15912 ft 366 kts 195°
2026-04-20 21:40 42.31238 -87.64821 16413 ft 368 kts 201°
2026-04-20 21:40 42.28837 -87.65977 16936 ft 366 kts 210°
2026-04-20 21:40 42.26493 -87.67359 17461 ft 369 kts 211°
2026-04-20 21:40 42.24133 -87.68781 17989 ft 374 kts 211°
2026-04-20 21:41 42.21738 -87.70201 18530 ft 378 kts 211°
2026-04-20 21:41 42.19439 -87.71538 18981 ft 381 kts 211°
2026-04-20 21:41 42.16913 -87.72985 19475 ft 384 kts 211°
2026-04-20 21:41 42.14443 -87.74387 19948 ft 386 kts 211°
2026-04-20 21:42 42.11956 -87.75795 20433 ft 388 kts 211°
2026-04-20 21:42 42.09490 -87.77189 20921 ft 390 kts 211°
2026-04-20 21:42 42.06865 -87.78302 21389 ft 406 kts 194°
2026-04-20 21:42 42.04080 -87.78445 21933 ft 412 kts 186°
2026-04-20 21:43 42.01207 -87.78443 22430 ft 414 kts 186°
2026-04-20 21:43 41.98322 -87.78471 22958 ft 414 kts 187°
2026-04-20 21:43 41.95439 -87.78534 23491 ft 415 kts 188°
2026-04-20 21:43 41.92543 -87.78582 23939 ft 420 kts 185°
2026-04-20 21:44 41.89590 -87.78350 24177 ft 430 kts 180°
2026-04-20 21:44 41.86584 -87.77922 24426 ft 438 kts 179°
2026-04-20 21:44 41.83537 -87.77420 24669 ft 445 kts 178°
2026-04-20 21:44 41.80443 -87.76902 24914 ft 450 kts 178°
2026-04-20 21:45 41.77313 -87.76396 25155 ft 455 kts 179°
2026-04-20 21:45 41.74160 -87.75905 25397 ft 456 kts 179°
2026-04-20 21:45 41.71018 -87.75432 25885 ft 451 kts 179°
2026-04-20 21:45 41.67911 -87.74976 26390 ft 448 kts 180°
2026-04-20 21:46 41.64814 -87.74530 26904 ft 446 kts 180°
2026-04-20 21:46 41.61734 -87.74091 27421 ft 444 kts 180°
2026-04-20 21:46 41.58671 -87.73657 27949 ft 441 kts 180°
2026-04-20 21:46 41.55666 -87.73232 28482 ft 438 kts 180°
2026-04-20 21:47 41.52649 -87.72805 29028 ft 434 kts 180°
2026-04-20 21:47 41.49654 -87.72381 29589 ft 430 kts 181°
2026-04-20 21:47 41.46702 -87.71963 30144 ft 425 kts 181°
2026-04-20 21:47 41.43778 -87.71549 30660 ft 419 kts 181°
2026-04-20 21:48 41.40904 -87.71142 31143 ft 412 kts 181°
2026-04-20 21:48 41.38048 -87.70741 31319 ft 417 kts 181°
2026-04-20 21:48 41.35119 -87.70340 31237 ft 428 kts 181°